User: anonymous   Login
Location: Trois-Rivi�res
(46.3500°N, 72.5500°W)
Time: 23:00:13
(UTC-04:00)
Language:

Cosmos 1544 - Orbit

View from above orbital plane
View from above orbital plane
View from above satellite
View from above satellite

Ground track
Ground track

The orbit data is extracted from the following two-line orbital elements,

1 14819U 84027A   16150.21309444  .00001886  00000-0  75292-4 0  9996
2 14819  82.4867  53.2737 0013656 315.7576  44.2569 15.24461156757286
Epoch (UTC): 29 May 2016 05:06:51
Eccentricity: 0.0013656
inclination: 82.4867°
perigee height: 483 km
apogee height: 502 km
right ascension of ascending node: 53.2737°
argument of perigee: 315.7576°
revolutions per day: 15.24461156
mean anomaly at epoch: 44.2569°
orbit number at epoch: 75728

The dashed part of the orbit path shows where the satellite is in the earth's shadow,  

DLR